[Iaude] MPEC Y85: 2014 MM55 [a=2.76,e=0.54,i=11.7,H=18.8]

mpec at mpcdb1.cfa.harvard.edu mpec at mpcdb1.cfa.harvard.edu
Fri Dec 28 07:33:17 EST 2018


M.P.E.C. 2018-Y85                                Issued 2018 Dec. 28, 12:29 UT
 
     The Minor Planet Electronic Circulars contain information on unusual
         minor planets and routine data on comets.  They are published
    on behalf of Division F of the International Astronomical Union by the
          Minor Planet Center, Smithsonian Astrophysical Observatory,
                          Cambridge, MA 02138, U.S.A.

             Prepared using the Tamkin Foundation Computer Network

                              MPC at CFA.HARVARD.EDU
            URL https://www.minorplanetcenter.net/    ISSN 1523-6714


                                   2014 MM55
 
                           Revision to MPEC 2014-N33
 
Additional Observations:
     K14M55M KC2011 01 29.40518409 50 01.113+11 55 04.72         22.2 GVEY085F51
     K14M55M  C2011 01 30.35052709 49 08.064+12 02 10.65         22.0 GVEY085F51
     K14M55M  C2011 01 30.38071009 49 06.279+12 02 24.64         22.3 GVEY085F51
     K14M55M  C2011 01 30.39526909 49 05.397+12 02 30.97         22.6 GVEY085F51
     K14M55M  C2011 02 02.53635309 46 05.579+12 26 19.22         22.9 GVEY085F51
     K14M55M  C2011 02 02.55159309 46 04.667+12 26 26.43         23.4 GVEY085F51
     K14M55M  C2011 02 03.38938009 45 16.395+12 32 49.15         22.9 GVEY085F51
     K14M55M  C2011 02 03.48762109 45 10.543+12 33 34.11         22.7 GVEY085F51
     K14M55M  C2014 05 07.55526920 58 08.736-06 59 02.98         22.3 GVEY085F51
     K14M55M  C2014 05 07.56761620 58 10.186-06 58 57.24         22.4 GVEY085F51
     K14M55M  C2014 05 07.57991720 58 11.644-06 58 50.86         22.2 GVEY085F51
     K14M55M  C2014 05 07.59223020 58 13.099-06 58 44.92         22.0 GVEY085F51
     K14M55M  C2014 06 03.55445221 54 08.894-03 08 15.79         21.5 GVEY085F51
     K14M55M  C2014 06 03.56706621 54 10.515-03 08 09.50         21.5 GVEY085F51
     K14M55M  C2014 06 03.57958321 54 12.129-03 08 03.13         21.0 GVEY085F51
     K14M55M  C2014 06 14.54361822 18 50.403-01 37 11.93         20.7 GVEY085F51
     K14M55M  C2014 06 14.55528722 18 51.997-01 37 06.28         21.0 GVEY085F51
     K14M55M  C2014 06 14.56695522 18 53.566-01 37 00.66         21.6 GVEY085F51
     K14M55M  C2014 06 14.57856522 18 55.183-01 36 54.51         21.4 GVEY085F51
     K14M55M  C2014 07 03.61025523 06 13.867+00 33 36.88         21.3 GVEY085F51
     K14M55M  C2014 07 27.58029000 18 10.606+01 21 35.58         19.5 GVEY085F51
     K14M55M  C2014 07 27.59105000 18 12.697+01 21 34.10         19.7 GVEY085F51
     K14M55M  C2014 07 30.57973700 28 20.800+01 12 41.50         19.4 GVEY085F51
     K14M55M  C2014 11 06.47070604 15 16.106-17 00 44.08         19.1 GVEY085F51
     K14M55M  C2014 11 06.48198304 15 15.758-17 00 39.96         19.2 GVEY085F51
     K14M55M  C2014 11 06.49324604 15 15.416-17 00 35.86         19.2 GVEY085F51
     K14M55M  C2014 11 19.46829304 08 37.845-14 50 44.32         19.0 GVEY085F51
     K14M55M  C2014 11 19.48068804 08 37.323-14 50 34.14         18.8 GVEY085F51
     K14M55M  C2014 11 19.49153604 08 36.885-14 50 25.07         18.9 GVEY085F51
     K14M55M  C2014 11 19.49231504 08 36.850-14 50 24.44         19.0 GVEY085F51
     K14M55M  C2014 11 19.50320904 08 36.405-14 50 15.35         18.9 GVEY085F51
     K14M55M  C2014 11 19.50399104 08 36.371-14 50 14.79         19.1 GVEY085F51
     K14M55M  C2014 12 15.40647003 58 32.705-06 53 49.74         20.7 GVEY085F51
     K14M55M  C2018 05 21.45475815 35 39.939-01 40 09.34         22.8 GVEY085F51
     K14M55M  C2018 05 21.46651115 35 39.238-01 40 06.32         22.3 GVEY085F51
     K14M55M  C2018 05 21.47823915 35 38.527-01 40 03.46         23.1 GVEY085F51
     K14M55M  C2018 06 10.37586115 17 07.996-01 00 31.62         23.6 GVEY085F51
     K14M55M  C2018 06 10.38630715 17 07.428-01 00 30.78         24.3 GVEY085F51
     K14M55M  C2018 06 10.39675715 17 06.888-01 00 30.18         23.9 GVEY085F51
     K14M55M KC2018 06 16.42120315 12 24.636-01 01 19.59         23.6 GVEY085F51
 
Observer details:
F51 Pan-STARRS 1, Haleakala.  Observers J. Bulger, K. Chambers, T. Lowe,
    E. Magnier, A. Schultz, M. Willman.  Measurers S. Chastel, M. Huber,
    Y. Ramanjooloo, R. Wainscoat, R. Weryk.  1.8-m Ritchey-Chretien + CCD.
 
First and last observations above in comparison with prediction:
Residuals in seconds of arc, reference and Delta-T
110129 F51  4.1+  0.3-    180616 F51  3.3-  0.6+    MPO331356   +0.0066 day
 
Orbital elements:
2014 MM55                                                Earth MOID = 0.3056 AU
Epoch 2019 Apr. 27.0 TT = JDT 2458600.5                 MPC
M   0.14836              (2000.0)            P               Q
n   0.21524280     Peri.  225.12594     +0.98220454     -0.14200554
a   2.7575091      Node   142.52593     +0.16847623     +0.95541924
e   0.5379965      Incl.   11.65587     -0.08300607     +0.25886000
P   4.58           H   18.8           G   0.15           U   0
Residuals in seconds of arc
110129 F51  0.1+  0.2+    140905 H45  0.4-  0.1+    141119 G45  0.0   0.2-
110130 F51  0.7+  0.0     140905 H45  0.4-  0.1+    141119 G45  0.1-  0.5+
110130 F51  0.0   0.2+    140905 H45  0.3+  0.5-    141119 G45  0.2+  0.3+
110130 F51  0.6-  0.1-    140905 H45  0.2+  0.2-    141119 G45  1.1+  1.2+
110202 F51  0.2+  0.0     140905 H45  0.1-  0.4-    141119 G45  0.6-  0.9+
110202 F51  0.1+  0.3+    140905 H45  0.4+  0.1-    141119 F51  0.1+  0.0
110203 F51  0.0   0.3+    140905 H45  0.4-  0.2-    141119 F51  0.0   0.0
110203 F51  0.1+  0.2+    140905 H45  0.6-  0.3-    141119 F51  0.1+  0.0
140507 F51  0.1-  0.1+    140907 H21  0.2+  0.0     141119 F51  0.1+  0.0
140507 F51  0.1-  0.3-    140907 H21  0.0   0.0     141119 F51  0.1+  0.0
140507 F51  0.0   0.1+    140907 H21  0.3-  0.1-    141119 F51  0.1+  0.1-
140507 F51  0.1+  0.0     140908 H21  0.1+  0.1+    141124 703  0.2-  0.3+
140603 F51  0.1-  0.0     140908 H21  0.3-  0.4-    141124 703  0.5+  1.0-
140603 F51  0.1-  0.1-    140908 H21  0.3+  0.2+    141124 703  0.3+  0.3+
140603 F51  0.1+  0.1-    140909 F51  0.0   0.1-    141124 G45  0.0   0.5+
140614 F51  0.0   0.1-    140909 F51  0.1-  0.0     141124 G45  0.2-  0.1-
140614 F51  0.1+  0.0     140909 F51  0.1+  0.1-    141124 G45  0.6+  0.2+
140614 F51  0.2-  0.1+    140909 F51  0.0   0.0     141124 G45  0.1-  0.3-
140614 F51  0.3+  0.7+    140915 H21  0.4+  0.2-    141126 G45  0.5+  0.3+
140624 F51  0.2-  0.4+    140915 H21  0.5+  0.0     141126 G45  0.4-  0.2-
140624 F51  0.0   0.2+    140915 H21  0.2+  0.0     141126 G45  0.8-  0.0
140624 F51  0.1-  0.3+    140915 H21  0.3+  0.3+    141126 G45  0.2-  0.1-
140624 F51  0.0   0.3+    140917 H21  0.1-  0.0     141126 G45  0.1-  0.6+
140625 291  0.0   0.1+    140917 H21  0.1-  0.0     141126 G45  0.1+  0.0
140625 291  0.1+  0.3+    140917 H21  0.0   0.1+    141130 703  1.0-  0.3-
140625 291  0.1-  0.3+    140917 H21  0.2+  0.2+    141130 703  1.2-  2.1+
140626 291  0.1-  0.4+    140917 H21  0.1-  0.1+    141201 F51  0.2-  0.1+
140626 291  0.0   0.3+    140923 H21  0.0   0.1-    141201 F51  0.1-  0.1+
140626 291  0.1-  0.2+    140923 H21  0.0   0.1-    141201 F51  0.1-  0.2+
140703 F51  0.1+  0.0     140923 H21  0.1-  0.1-    141201 F51  0.1-  0.2+
140705 F51  0.1-  0.0     140923 H21  0.1+  0.1+    141209 807  0.6-  0.7-
140705 F51  0.2-  0.1-    140923 H21  0.0   0.2+    141209 807  0.5-  0.4-
140705 F51  0.1-  0.0     140926 H21  0.0   0.1+    141209 807  0.1-  0.2-
140705 F51  0.0   0.1-    140926 H21  0.0   0.0     141209 807  0.0   0.2-
140710 F51  0.1-  0.1+    140926 H21  0.0   0.1+    141209 807  0.1-  0.2-
140710 F51  0.1-  0.1+    141005 F51  0.1-  0.0     141211 807  0.0   0.7-
140710 F51  0.0   0.2+    141005 F51  0.1-  0.0     141211 807  0.2+  0.3-
140710 F51  0.0   0.2+    141005 F51  0.1-  0.0     141211 807  0.6-  0.1-
140720 H21  0.0   0.2-    141005 F51  0.1-  0.0     141211 807  0.3-  0.0
140720 H21  0.5-  0.4-    141007 F51  0.0   0.0     141211 807  0.3+  0.3-
140727 F51  0.1+  0.1-    141007 F51  0.0   0.0     141212 H21  0.3+  0.4-
140727 F51  0.0   0.1-    141007 F51  0.1+  0.0     141212 H21  0.2-  0.2-
140728 194  0.4+  0.0     141007 F51  0.0   0.0     141212 H21  0.0   0.1+
140728 194  0.4+  0.3-    141016 448  0.4+  0.2-    141212 H21  0.2+  0.2-
140728 194  0.4+  0.4-    141016 448  0.1-  0.1-    141212 H21  0.2-  0.3-
140729 F51  0.0   0.0     141016 448  0.2+  0.1-    141215 F51  0.2+  0.2+
140729 F51  0.0   0.0     141023 807  0.1-  0.3+    141217 807  0.4-  0.2-
140729 F51  0.0   0.0     141023 807  0.0   0.3+    141217 807  0.2-  0.4-
140729 F51  0.0   0.0     141023 807  0.1-  0.4+    141217 807  0.1+  0.4-
140730 F51  0.1+  0.0     141103 807  0.1+  0.1-    141217 807  0.3+  0.2-
140802 W86  0.3-  0.3-    141103 807  0.3+  0.1-    141217 807  0.3+  0.3-
140802 W86  0.2+  0.0     141103 807  0.3+  0.2-    141224 F51  0.1+  0.1+
140802 W86  0.0   0.0     141106 F51  0.1+  0.1-    141224 F51  0.1+  0.0
140802 W86  0.2-  0.1-    141106 F51  0.0   0.0     141224 F51  0.1-  0.1+
140802 W86  0.2-  0.1+    141106 F51  0.1+  0.0     141224 F51  0.1-  0.1+
140802 W86  0.1-  0.1+    141111 807  0.1+  0.0     141228 G45  0.4-  0.3+
140804 H21  0.0   0.2+    141111 807  0.1+  0.0     141228 G45  0.1-  1.0-
140804 H21  0.0   0.0     141111 807  0.2+  0.1-    141228 G45  0.2-  0.1+
140804 H21  0.1-  0.1-    141111 807  0.0   0.2-    141228 G45  0.8-  0.2-
140804 H21  0.1+  0.1-    141111 807  0.1+  0.2-    141229 807  0.4+  0.5-
140804 H21  0.0   0.3-    141112 807  0.1+  0.2-    141229 807  0.1+  0.1-
140812 H21  0.1-  0.5-    141112 807  0.1-  0.1-    141229 807  0.1-  0.5-
140812 H21  0.2+  0.5-    141112 807  0.0   0.2-    150109 F51  0.2-  0.2+
140812 H21  0.0   0.5-    141112 807  0.1+  0.3-    150109 F51  0.0   0.2+
140812 H21  0.1+  0.2-    141112 807  0.1-  0.0     150109 F51  0.0   0.3+
140820 F51  0.0   0.2+    141117 703  0.4+  0.1-    150109 F51  0.0   0.2+
140820 F51  0.1+  0.2+    141117 703  0.3-  0.4-    180521 F51  0.2-  0.6-
140820 F51  0.1+  0.2+    141117 703  1.0-  0.5+    180521 F51  0.0   0.0
140831 448  0.1-  0.2-    141117 703  0.2-  0.3+    180521 F51  0.1-  0.4+
140831 448  0.1+  0.1-    141118 G45  0.3+  0.2+    180610 F51  0.5+  0.3-
140831 448  0.1+  0.2-    141118 G45  0.3+  0.3-    180610 F51  0.1+  0.3+
140903 204  0.1+  0.1-    141118 G45  0.0   0.0     180610 F51  0.0   0.7+
140903 204  0.0   0.1-    141118 G45  0.1+  0.1+    180616 F51  0.2+  0.1+
140903 204  0.1+  0.2-    141118 G45  0.2+  0.2+

Ephemeris:
2014 MM55                a,e,i = 2.76, 0.54, 12                  q = 1.2740
Date    TT    R. A. (2000) Decl.     Delta      r     Elong.  Phase     V
2018 11 28    17 45 57.9 -17 37 31   2.8605  1.9800    21.9    10.7    23.2
...
2018 12 13    18 21 27.4 -18 19 00   2.8126  1.8809    15.3     7.9    23.0
...
2018 12 21    18 41 36.0 -18 28 14   2.7791  1.8283    12.0     6.4    22.8
...
2018 12 27    18 57 14.4 -18 28 36   2.7509  1.7891     9.7     5.3    22.7
2018 12 28    18 59 53.5 -18 28 05   2.7460  1.7826     9.3     5.1    22.7
2018 12 29    19 02 33.3 -18 27 24   2.7410  1.7761     8.9     4.9    22.7
...
2019 01 04    19 18 47.6 -18 19 40   2.7098  1.7374     6.8     3.9    22.5
...
2019 01 12    19 41 06.4 -17 59 15   2.6654  1.6865     4.4     2.5    22.3
...
2019 01 27    20 24 50.3 -16 47 56   2.5764  1.5941     3.1     1.9    22.1

A. U. Tomatic                (C) Copyright 2018 MPC           M.P.E.C. 2018-Y85



More information about the Iaude mailing list